Location: Unspecified
(17.6330°N, 0.0000°E)
Time: 19:24:12
(UTC+00:00)

A-11 Canister half - Pass Details

Date: 19 June 2019
Orbit: 1514 x 1686 km, 47.2° (Epoch: 24 August)

Event Time Altitude Azimuth Distance (km) Brightness Sun altitude
Rises 16:52:27 0° 329° (NNW) 4,728 12.3 22.3°
Reaches altitude 10° 16:56:30 10° 343° (NNW) 3,719 11.6 21.4°
Maximum altitude 17:03:31 23° 33° (NNE) 2,795 10.4 19.8°
Drops below altitude 10° 17:10:25 10° 82° (E) 3,667 10.5 18.3°
Sets 17:14:19 0° 96° (E) 4,647 10.9 17.4°
